Location: Appletree Creek
(38.7363°N, 122.6833°W)
Time: 18:01:04
(UTC+00:00)

Cosmos 1763 Rocket - Pass Details

Date: 18 September 2020
Orbit: 733 x 779 km, 74.0° (Epoch: 19 October)

Event Time Altitude Azimuth Distance (km) Brightness Sun altitude
Exits shadow 12:57:31 - 207° (SSW) 3,060 6.2 -12.0°
Reaches altitude 10° 12:59:27 10° 211° (SSW) 2,322 5.6 -11.7°
Maximum altitude 13:04:40 60° 291° (WNW) 890 3.6 -10.7°
Drops below altitude 10° 13:09:55 10° 11° (N) 2,336 6.3 -9.7°
Sets 13:12:21 0° 15° (NNE) 3,264 7.1 -9.2°
